Satellite: METEOR-M Catalog number: 35865 Epoch time: 11159.70678479 Element set: 440 Inclination: 098.7059 deg RA of node: 214.9443 deg Eccentricity: 0.0003424 Arg of perigee: 057.2120 deg Mean anomaly: 302.9344 deg Mean motion: 14.21839302 rev/day Decay rate: 1.76e-06 rev/day^2 Epoch rev: 8938 Checksum: 305
Satellite: RS-38 Catalog number: 35869 Epoch time: 11159.70790274 Element set: 433 Inclination: 098.7026 deg RA of node: 214.9817 deg Eccentricity: 0.0005632 Arg of perigee: 057.4822 deg Mean anomaly: 302.6866 deg Mean motion: 14.22013220 rev/day Decay rate: 1.77e-06 rev/day^2 Epoch rev: 8939 Checksum: 315
/EX